Back to catalog

CZ-6A DEB

AlivePO
NORAD 60879·DEBRIS·🇨🇳 China

Launched Aug 6, 2024 from Taiyuan Satellite Launch Center

Loading…

Next Passes (next 24 hours)

TLE

FreshSource: Space-Track

Epoch: Sep 14, 2026, 00:41 UTC

1 60879U 24140KJ  26257.02890960  .00000647  00000-0  30262-3 0  9990
2 60879  89.0254 267.5889 0050044 258.1034 101.4541 14.18547239107526

Track CZ-6A DEB in real time with AllMySat

Download on the App Store